FW1504 Weather Reports


Display with metric or nautical units.
time (UTC)temp
F
wind
direction
speed
MPH
gust
MPH
rain 1hr
in
rain 24hr
in
rain mn
in
humidity
%
barometer
mb
20260505111551 70 178 1.0 8.0 0.00 0.00 0.00 80 998.4
20260505110106 70 170 2.0 7.0 0.00 0.00 0.00 80 998.5
20260505101547 71 360 2.0 7.0 0.00 0.00 0.00 79 998.4
20260505100048 71 180 3.0 8.0 0.00 0.00 0.00 79 998.4
20260505094544 71 178 2.0 9.0 0.00 0.00 0.00 78 998.3
20260505093043 71 360 3.0 6.0 0.00 0.00 0.00 78 998.5
20260505091541 71 360 4.0 8.0 0.00 0.00 0.00 78 998.4
20260505090041 71 360 3.0 10.0 0.00 0.00 0.00 78 998.7
20260505084541 71 360 3.0 6.0 0.00 0.00 0.00 78 998.6
20260505083038 71 360 3.0 9.0 0.00 0.00 0.00 78 998.7
20260505081544 71 360 2.0 11.0 0.00 0.00 0.00 78 999.1
20260505080039 72 360 3.0 8.0 0.00 0.00 0.00 77 999.2
20260505074536 71 360 4.0 10.0 0.00 0.00 0.00 78 999.1
20260505073044 71 360 3.0 8.0 0.00 0.00 0.00 78 999.3
20260505071547 71 360 5.0 13.0 0.00 0.00 0.00 78 999.5
20260505070032 71 360 4.0 9.0 0.00 0.00 0.00 78 999.8
20260505064531 71 360 5.0 12.0 0.00 0.00 0.00 78 999.9
20260505063030 71 360 5.0 13.0 0.00 0.00 0.00 78 1000.0
20260505061532 71 360 4.0 10.0 0.00 0.00 0.00 78 1000.4
20260505060024 71 360 4.0 11.0 0.00 0.00 0.00 77 1000.6
20260505054532 71 360 3.0 9.0 0.00 0.00 0.00 77 1000.7
20260505053027 72 360 3.0 14.0 0.00 0.00 0.00 76 1000.8
20260505051532 72 360 3.0 9.0 0.00 0.00 0.00 76 1000.8
20260505041517 72 360 4.0 13.0 0.00 0.00 0.00 74 1001.2
20260505040023 73 360 4.0 12.0 0.00 0.00 0.00 74 1001.4
20260505034513 73 360 4.0 11.0 0.00 0.00 0.00 73 1001.3
20260505033013 74 360 4.0 13.0 0.00 0.00 0.00 72 1001.0
20260505031512 74 360 5.0 11.0 0.00 0.00 0.00 72 1001.0
20260505030023 74 360 6.0 13.0 0.00 0.00 0.00 71 1001.3
20260505024510 75 360 4.0 11.0 0.00 0.00 0.00 70 1001.1
20260505023010 75 360 5.0 12.0 0.00 0.00 0.00 70 1001.1
20260505021509 75 360 5.0 11.0 0.00 0.00 0.00 69 1001.0
20260505020009 76 360 5.0 15.0 0.00 0.00 0.00 69 1000.9
20260505014507 76 360 5.0 12.0 0.00 0.00 0.00 68 1000.9
20260505013007 76 360 4.0 11.0 0.00 0.00 0.00 67 1000.7
20260505011509 77 360 4.0 11.0 0.00 0.00 0.00 66 1001.0
20260505010005 78 360 3.0 10.0 0.00 0.00 0.00 65 1001.1
20260505004506 78 360 5.0 11.0 0.00 0.00 0.00 64 1001.3
20260505003003 79 360 5.0 15.0 0.00 0.00 0.00 63 1001.1
20260505001503 79 360 6.0 16.0 0.00 0.00 0.00 62 1001.2
20260505000002 79 360 7.0 16.0 0.00 0.00 0.00 62 1001.4
20260504234502 80 360 6.0 13.0 0.00 0.00 0.00 61 1001.6
20260504233105 80 360 5.0 14.0 0.00 0.00 0.00 60 1001.4
20260504231558 81 169 3.0 13.0 0.00 0.00 0.00 59 1001.7
20260504230057 81 360 4.0 14.0 0.00 0.00 0.00 58 1002.0
20260504224559 81 360 4.0 14.0 0.00 0.00 0.00 59 1001.9
20260504223056 81 360 6.0 14.0 0.00 0.00 0.00 58 1002.1
20260504221555 81 165 7.0 16.0 0.00 0.00 0.00 58 1002.2
20260504220110 81 179 5.0 12.0 0.00 0.00 0.00 58 1002.4
20260504214554 81 180 7.0 17.0 0.00 0.00 0.00 57 1002.4
20260504213053 82 175 5.0 14.0 0.00 0.00 0.00 57 1002.6
20260504211551 81 191 4.0 10.0 0.00 0.00 0.00 58 1003.0
20260504210045 82 171 5.0 10.0 0.00 0.00 0.00 55 1003.4
20260504204543 81 172 3.0 8.0 0.00 0.00 0.00 56 1003.7
20260504203042 80 167 4.0 12.0 0.00 0.00 0.00 56 1003.9
20260504201540 81 179 5.0 12.0 0.00 0.00 0.00 54 1004.0
20260504200048 82 360 5.0 14.0 0.00 0.00 0.00 54 1004.2
20260504194541 81 169 6.0 16.0 0.00 0.00 0.00 54 1004.5
20260504193034 81 160 5.0 15.0 0.00 0.00 0.00 54 1004.7
20260504191548 81 176 3.0 15.0 0.00 0.00 0.00 56 1004.9
20260504190032 81 160 7.0 11.0 0.00 0.00 0.00 53 1004.9
20260504184531 80 360 4.0 14.0 0.00 0.00 0.00 55 1005.3
20260504183038 79 360 4.0 17.0 0.00 0.00 0.00 57 1005.6
20260504181526 79 360 4.0 12.0 0.00 0.00 0.00 55 1005.9
20260504180023 79 180 5.0 13.0 0.00 0.00 0.00 54 1006.1
20260504174521 79 165 4.0 12.0 0.00 0.00 0.00 56 1006.2
20260504173016 77 176 4.0 11.0 0.00 0.00 0.00 56 1006.5
20260504171516 78 360 5.0 14.0 0.00 0.00 0.00 54 1006.5